User: anonymous   Login
Location: Unspecified
(0.0000°N, 0.0000°E)
Time: 18:56:33
(UTC+00:00)
Language:

Radcal - Orbit

View from above orbital plane
View from above orbital plane
View from above satellite
View from above satellite

Ground track
Ground track

The orbit data is extracted from the following two-line orbital elements,

1 22698U 93041A   19340.68934698 +.00000060 +00000-0 +19443-4 0  9995
2 22698 089.5701 188.4412 0091121 063.6673 297.3841 14.23409077372937
Epoch (UTC): 06 December 2019 16:32:39
Eccentricity: 0.0091121
inclination: 89.5701°
perigee height: 748 km
apogee height: 879 km
right ascension of ascending node: 188.4412°
argument of perigee: 63.6673°
revolutions per day: 14.23409077
mean anomaly at epoch: 297.3841°
orbit number at epoch: 37293

The dashed part of the orbit path shows where the satellite is in the earth's shadow,  

DLR